Location: Brachbach
(49.1847°N, 9.7240°E)
Time: 08:13:04
(UTC+00:00)

FO-29 - Pass Details

Date: 18 March 2026
Orbit: 801 x 1320 km, 98.5° (Epoch: 17 April)

Event Time Altitude Azimuth Distance (km) Brightness Sun altitude
Rises 20:00:58 0° 14° (NNE) 4,136 13.0 -24.3°
Reaches altitude 10° 20:03:32 10° 14° (NNE) 3,220 12.4 -24.7°
Maximum altitude 20:11:08 90° 89° (E) 1,310 10.0 -25.7°
Drops below altitude 10° 20:19:02 10° 197° (SSW) 3,340 12.1 -26.8°
Sets 20:21:44 0° 197° (SSW) 4,296 12.7 -27.1°
